Back to catalog

SL-12 R/B

AUX MOTOR

AliveHEO
NORAD 28919·ROCKET BODY·🇷🇺 Russia

Launched Dec 25, 2005 from Baikonur Cosmodrome

Loading…

Next Passes (next 24 hours)

TLE

FreshSource: Space-Track

Epoch: Sep 14, 2026, 11:53 UTC

1 28919U 05050E   26257.49546243  .00000147  00000-0  54558-3 0  9990
2 28919  65.0279  29.0933 5735474 192.8464 142.2126  4.24381772320130

Track SL-12 R/B in real time with AllMySat

Download on the App Store